Probability
0 0 0 0 0 0 0 0 0 0 0 0 0 0 0 0 0 0 0 0 0 0 0 0 0 0 0 0 0 0 0 0 0 0 0 0 0 0
0 0 0 0 0 0 0 0 0 0 0 0 0 0 0 0 0 0 0 0 0 0 0 0 0 0 0 0 0 0 0 0 0 0 0 0 0 0
0 0 0 0 0 0 0 0 0 0 0 0 0 0 0 0 0 0 0 0 0 0 0 0 0 0 0 0 0 0 0 0 0 0 0 0 0 0
0 0 0 0 0 0 0 0 0 0 0 0 0 0 0 0 0 0 0 0 0 0 0 0 0 0 0 0 0 0 0 0 0 0 0 0 0 0
0 0 0 0 0 0 0 0 0 0 0 0 0 0 0 0 0 0 0 0 0 0 0 0 0 0 0 0 0 0 0 0 0 0 0 0 0 0
0 0 0 0 0 0 0 0 0 0 0 0 0 0 0 0 0 0 0 0 0 0 0 0 0 0 0 0 0 0 0 0 0 0 0 0 0 0
0 0 0 0 0 0 0 0 0 0 0 0 0 0 0 0 0 0 0 0 0 0 0 0 0 0 0 0 0 0 0 0 0 0 0 0 0 0
0 0 0 0 0 0 0 0 0 0 0 0 0 0 0 0 0 0 0 0 0 0 0 0 0 0 0 0 0 0 0 0 0 0 0 0 0 0
0 0 0 0 0 0 0 0 0 0 0 0 0 0 0 0 0 0 0 0 0 0 0 0 0 0 0 0 0 0 0 0 0 0 0 0 0 0
0 0 0 0 0 0 0 0 0 0 0 0 0 0 0 0 0 0 0 0 0 0 0 0 0 0 0 0 0 0 0 0 0 0 0 0 0 0
0 0 0 0 0 0 0 0 0 0 0 0 0 0 0 0 0 0 0 0 0 0 0 0 0 0 0 0 0 0 0 0 0 0 0 0 0 0
0 0 0 0 0 0 0 0 0 0 0 0 0 0 0 0 0 0 0 0 0 0 0 0 0 0 0 0 0 0 0 0 0 0 0 0 0 0
0 0 0 0 0 0 0 0 0 0 0 0 0 0 0 0 0 0 0 0 0 0 0 0 0 0 0 0 0 0 0 0 0 0 0 0 0 0
0 0 0 0 0 0 0 0 0 0 0 0 0 0 0 0 0 0 0 0 0 0 0 0 0 0 0 0 0 0 0 0 0 0 0 0 0 0
0 0 0 0 0 0 0 0 0 0 0 0 0 0 0 0 0 0 0 0 0 0 0 0 0 0 0 0 0 0 0 0 0 0 0 0 0 0
0 0 0 0 0 0 0 0 0 0 0 0 0 0 0 0 0 0 0 0 0 0 0 0 0 0 0 0 0 0 0 0 0 0 0 0 0 0
0 0 0 0 0 0 0 0 0 0 0 0 0 0 0 0 0 0 0 0 0 0 0 0 0 0 0 0 0 0 0 0 0 0 0 0 0 0
0 0 0 0 0 0 0 0 0 0 0 0 0 0 0 0 0 0 0 0 0 0 0 0 0 0 0 0 0 0 0 0 0 0 0 0 0 0
0 0 0 0 0 0 0 0 0 0 0 0 0 0 0 0 0 0 0 0 0 0 0 0 0 0 0 0 0 0 0 0 0 0 0 0 0 0
0 0 0 0 0 0 0 0 0 0 0 0 0 0 0 0 0 0 0 0 0 0 0 0 0 0 0 0 0 0 0 0 0 0 0 0 0 0
0 0 0 0 0 0 0 0 0 0 0 0 0 0 0 0 0 0 0 0 0 0 0 0 0 0 0 0 0 0 0 0 0 0 0 0 0 0
0 0 0 0 0 0 0 0 0 0 0 0 0 0 0 0 0 0 0 0 0 0 0 0 0 0 0 0 0 0 0 0 0 0 0 0 0 0
0 0 0 0 0 0 0 0 0 0 0 0 0 0 0 0 0 0 0 0 0 0 0 0 0 0 0 0 0 0 0 0 0 0 0 0 0 0
Height
5622 5624 5627 5630 5633 5636 5640 5644 5648 5652 5658 5663 5666 5670 5674 5678 5683 5686 5690 5693 5697 5700 5703 5706 5709 5711 5713 5715 5717 5719 5720 5722 5723 5723 5724 5724 5725 5725
5608 5610 5613 5616 5619 5622 5625 5629 5633 5637 5643 5648 5652 5656 5659 5663 5668 5672 5676 5679 5682 5686 5689 5692 5694 5697 5699 5702 5703 5705 5707 5708 5709 5710 5711 5711 5711 5711
5593 5596 5599 5602 5605 5608 5611 5614 5618 5622 5628 5633 5637 5640 5644 5648 5653 5657 5661 5665 5668 5671 5674 5677 5680 5682 5685 5687 5689 5691 5692 5694 5695 5696 5697 5697 5697 5698
5579 5582 5585 5588 5591 5594 5596 5600 5603 5607 5612 5617 5622 5625 5629 5634 5638 5642 5646 5650 5653 5657 5660 5662 5665 5667 5670 5672 5674 5676 5678 5679 5681 5682 5683 5684 5684 5683
5565 5568 5571 5573 5576 5579 5582 5585 5588 5592 5596 5601 5606 5610 5614 5618 5622 5626 5630 5634 5638 5641 5644 5647 5650 5652 5654 5657 5659 5661 5663 5665 5666 5667 5667 5668 5668 5668
5551 5553 5556 5559 5562 5565 5567 5570 5573 5577 5581 5585 5590 5595 5599 5602 5606 5611 5615 5619 5622 5626 5629 5632 5635 5637 5639 5642 5644 5646 5647 5648 5650 5651 5652 5653 5653 5653
5537 5539 5542 5545 5547 5550 5552 5555 5558 5562 5565 5569 5574 5579 5583 5587 5591 5595 5599 5603 5606 5609 5613 5617 5620 5622 5623 5625 5627 5629 5631 5632 5633 5635 5636 5637 5637 5638
5523 5526 5528 5530 5533 5535 5538 5540 5543 5546 5550 5554 5559 5563 5568 5572 5575 5578 5582 5586 5591 5595 5597 5601 5603 5606 5608 5610 5611 5612 5614 5616 5617 5619 5620 5620 5621 5622
5508 5511 5514 5516 5518 5520 5523 5526 5529 5531 5535 5539 5543 5547 5552 5556 5560 5563 5565 5569 5574 5577 5580 5585 5587 5590 5592 5593 5595 5596 5598 5599 5601 5602 5603 5604 5605 5606
5495 5497 5500 5502 5504 5506 5509 5512 5514 5517 5521 5524 5529 5533 5536 5539 5542 5546 5549 5552 5556 5559 5562 5567 5571 5574 5576 5577 5579 5580 5581 5583 5584 5585 5586 5588 5589 5590
5482 5484 5486 5488 5491 5493 5495 5498 5501 5503 5505 5509 5513 5516 5519 5522 5525 5529 5532 5535 5540 5543 5546 5550 5554 5558 5560 5562 5563 5564 5565 5566 5568 5569 5570 5571 5572 5573
5470 5471 5473 5475 5477 5478 5481 5484 5486 5489 5491 5494 5498 5501 5504 5506 5509 5512 5515 5519 5523 5527 5530 5534 5537 5539 5544 5547 5547 5548 5549 5551 5552 5553 5553 5554 5555 5556
5457 5459 5461 5462 5464 5466 5467 5470 5472 5474 5477 5480 5483 5486 5488 5491 5494 5496 5499 5502 5506 5510 5514 5516 5519 5522 5525 5530 5531 5532 5533 5535 5536 5537 5537 5538 5539 5539
5445 5446 5448 5449 5451 5453 5454 5456 5458 5460 5462 5465 5468 5471 5473 5476 5479 5481 5484 5486 5489 5493 5496 5498 5501 5504 5507 5511 5515 5517 5518 5519 5520 5521 5522 5522 5523 5523
5432 5434 5435 5437 5438 5440 5441 5443 5444 5446 5448 5451 5453 5456 5459 5461 5463 5466 5468 5470 5473 5475 5478 5481 5484 5487 5490 5493 5497 5499 5501 5503 5503 5504 5506 5506 5507 5507
5420 5421 5423 5424 5426 5427 5429 5430 5431 5433 5435 5437 5440 5442 5444 5446 5448 5450 5453 5455 5457 5460 5461 5464 5466 5470 5473 5476 5479 5482 5484 5486 5487 5488 5489 5490 5490 5490
5408 5409 5411 5412 5414 5415 5416 5417 5418 5420 5422 5424 5426 5428 5430 5431 5433 5435 5437 5439 5441 5444 5446 5448 5450 5453 5456 5459 5462 5465 5467 5469 5470 5471 5471 5473 5474 5474
5396 5397 5399 5400 5401 5403 5404 5405 5406 5408 5409 5411 5412 5414 5416 5417 5419 5420 5422 5424 5426 5428 5430 5432 5434 5437 5440 5443 5446 5448 5451 5452 5454 5454 5454 5456 5459 5459
5384 5385 5386 5388 5389 5390 5392 5393 5394 5395 5396 5398 5399 5401 5402 5403 5404 5405 5407 5408 5410 5412 5414 5416 5418 5421 5425 5429 5432 5432 5435 5436 5437 5438 5439 5440 5443 5444
5373 5374 5375 5376 5377 5378 5379 5381 5382 5383 5384 5385 5386 5387 5388 5389 5389 5390 5391 5393 5395 5397 5399 5401 5403 5405 5409 5413 5417 5418 5418 5419 5421 5423 5424 5425 5427 5428
5362 5363 5363 5364 5365 5366 5367 5369 5370 5371 5371 5372 5373 5373 5374 5374 5375 5376 5377 5379 5381 5383 5385 5387 5388 5390 5393 5395 5399 5402 5403 5403 5404 5406 5408 5410 5412 5413
5352 5353 5353 5353 5354 5355 5356 5357 5358 5359 5359 5360 5360 5361 5361 5361 5362 5363 5364 5365 5367 5369 5371 5373 5374 5375 5377 5380 5383 5386 5388 5389 5390 5391 5392 5394 5396 5398
5342 5342 5343 5343 5344 5344 5345 5345 5346 5347 5347 5348 5348 5348 5348 5349 5349 5350 5351 5352 5354 5355 5357 5359 5360 5361 5363 5365 5368 5371 5373 5375 5376 5378 5380 5381 5382 5384
Wind_Speed
52 53 54 54 54 54 53 53 53 52 52 53 53 53 53 53 53 52 52 52 52 51 51 50 50 50 49 49 47 47 46 46 45 45 45 45 45 45
52 53 53 54 53 54 54 54 54 54 53 53 54 54 54 55 54 54 53 53 52 52 52 52 51 51 50 51 50 49 49 48 47 47 46 47 47 46
52 52 52 53 54 54 55 55 55 55 55 54 54 55 55 55 55 54 53 54 53 52 52 53 53 53 52 52 52 51 50 50 49 49 49 49 49 48
53 53 53 52 53 53 54 55 55 55 56 54 55 56 56 56 56 55 54 53 53 53 52 52 53 54 54 54 53 53 51 52 51 51 51 50 50 50
52 52 51 51 53 53 55 55 55 56 56 56 55 55 56 55 56 55 55 54 54 54 53 53 53 54 54 54 54 55 53 54 53 53 53 52 51 51
52 51 51 51 52 52 54 55 56 57 57 56 56 56 56 56 56 56 56 55 55 55 55 54 54 54 54 55 56 56 56 55 55 55 55 54 53 53
51 51 51 51 51 51 52 53 55 55 56 56 56 56 57 57 57 57 57 56 56 57 56 56 56 55 55 55 56 57 58 58 56 56 55 54 54 53
50 51 51 51 50 51 51 53 55 55 56 56 56 56 55 56 58 58 58 58 58 58 58 57 56 56 55 55 56 56 57 57 57 57 56 56 55 54
50 49 49 49 49 49 50 51 53 54 56 55 55 55 55 55 56 58 58 58 59 59 59 58 57 56 55 55 56 56 56 57 58 58 57 56 55 54
47 48 48 49 49 49 50 50 51 52 53 54 54 54 55 56 56 57 58 58 58 59 59 57 57 57 56 55 55 55 56 56 57 57 57 56 56 55
45 46 47 48 50 50 49 50 50 51 52 52 53 53 55 55 56 57 57 58 58 58 58 57 57 57 56 56 55 55 56 56 56 57 57 57 57 56
44 45 46 46 47 48 49 49 50 51 52 53 53 53 52 52 53 55 56 58 59 58 57 57 57 57 57 56 56 56 55 55 56 56 56 57 57 56
43 43 44 45 46 46 46 47 49 49 51 52 52 52 53 53 52 52 54 56 57 58 58 58 58 58 58 56 57 56 55 55 55 55 54 55 56 56
41 42 43 44 44 45 46 46 47 48 49 51 51 51 51 52 52 52 52 53 55 56 57 57 57 58 57 56 56 56 56 55 54 54 54 54 55 56
40 41 42 43 44 44 44 45 45 46 48 49 49 49 50 51 51 52 52 53 54 55 56 57 57 57 56 55 55 55 56 55 55 55 55 55 56 57
39 40 41 42 43 43 43 43 43 45 46 46 47 48 49 50 51 51 52 52 53 53 54 55 56 56 56 55 55 55 56 56 56 56 57 57 57 57
40 40 40 41 41 41 41 41 41 42 43 44 45 46 47 48 49 50 51 52 52 52 53 54 54 54 56 55 54 54 55 55 56 57 57 56 56 56
39 40 41 41 41 40 41 41 41 41 42 43 43 44 45 47 48 48 50 50 51 51 52 52 53 53 55 55 55 54 54 53 54 54 55 55 54 54
39 39 39 40 40 40 40 40 40 40 41 41 42 42 44 44 45 47 49 48 49 50 50 51 52 53 54 54 53 53 52 52 52 53 53 53 52 51
36 37 37 38 39 39 40 40 40 40 40 40 41 42 43 44 44 45 46 47 46 47 48 48 50 51 52 53 52 52 51 51 51 51 51 51 50 50
34 35 35 36 37 38 39 39 40 39 39 40 40 42 42 43 43 44 44 45 45 45 45 46 48 50 51 52 51 50 49 49 50 49 49 49 49 48
33 33 33 34 35 36 37 38 38 38 39 39 39 40 41 42 42 42 43 43 43 44 44 45 46 47 48 49 48 48 48 48 48 49 48 48 47 47
32 33 33 33 34 34 35 36 36 37 38 38 39 39 40 40 40 41 42 41 42 42 43 43 43 44 45 45 45 46 46 46 46 46 46 46 46 44
Wind_Direction
257 255 255 255 254 253 253 251 251 250 248 249 249 249 250 251 252 253 253 254 254 255 256 257 259 260 260 260 261 262 263 265 266 268 269 270 271 271
256 255 254 254 254 254 253 252 251 251 249 250 250 249 250 251 252 253 253 254 255 256 257 258 258 259 260 260 262 262 263 264 266 267 268 269 270 271
256 256 255 255 254 254 254 253 252 252 252 250 250 251 251 252 252 252 252 253 255 256 257 258 258 258 259 260 261 262 263 264 265 267 268 269 270 270
256 256 255 255 254 254 254 253 252 252 252 251 251 251 252 252 252 252 252 254 255 256 257 258 259 259 259 259 260 261 263 264 265 266 267 269 269 269
256 256 256 255 255 255 254 253 253 253 252 251 251 251 251 251 251 252 253 254 254 255 256 257 258 259 260 259 260 261 262 264 265 266 266 267 268 268
255 256 256 256 256 256 256 255 254 253 252 251 251 250 251 251 251 252 253 254 254 255 256 256 258 259 260 260 261 261 262 263 264 265 266 266 267 268
255 255 255 256 257 257 257 256 255 254 252 251 250 250 252 252 253 254 254 254 254 255 255 256 258 259 260 261 262 263 262 263 263 264 265 266 266 267
255 255 256 256 257 258 257 256 256 255 254 253 252 252 253 254 255 255 255 255 255 255 255 255 257 259 261 262 263 264 264 264 264 264 264 265 266 267
256 256 256 257 257 258 256 257 257 256 255 254 253 252 253 254 255 256 255 254 255 255 255 255 256 258 260 262 262 263 265 264 264 264 264 264 266 266
258 258 258 257 257 258 257 257 257 256 254 254 254 253 253 254 255 256 255 255 255 256 255 255 255 257 259 261 262 263 264 264 264 263 263 264 265 266
260 260 259 259 259 259 258 257 257 256 255 255 253 253 254 254 255 255 255 255 255 256 256 256 256 257 259 260 261 262 263 264 264 264 264 264 264 264
261 261 260 259 259 259 259 258 257 257 256 255 254 254 254 255 256 256 256 256 255 255 256 256 257 258 259 259 260 261 262 263 264 264 265 265 265 265
261 261 260 260 259 260 261 260 258 257 257 257 256 255 255 256 257 257 257 256 255 255 256 258 258 258 259 259 259 261 262 263 264 264 265 265 265 266
262 261 260 260 260 261 262 262 259 259 258 257 256 257 256 256 256 256 257 257 257 257 258 258 258 258 258 258 258 260 261 262 263 264 264 265 265 266
262 262 262 261 261 262 262 262 260 259 259 258 257 257 257 256 255 256 257 258 258 258 258 258 257 257 258 259 259 260 260 261 262 263 264 265 265 265
262 263 263 262 262 262 262 262 262 260 259 258 258 258 258 257 256 256 257 258 259 259 258 259 258 257 258 258 259 260 261 262 263 264 265 265 265 265
263 262 262 262 262 262 262 262 262 261 260 260 259 260 258 258 256 257 258 259 259 259 258 258 258 258 257 257 258 260 261 261 263 264 265 264 264 265
265 264 263 262 262 261 261 262 263 263 262 262 261 261 260 259 258 259 260 260 260 259 259 259 259 258 257 256 258 260 261 262 263 264 265 264 264 265
265 265 264 262 262 261 260 261 262 263 264 263 262 262 262 262 261 260 261 260 260 260 259 259 259 258 257 257 258 260 261 262 263 264 263 263 265 265
266 264 264 263 262 261 261 261 263 265 265 264 264 263 264 264 263 262 261 260 260 260 259 259 260 259 258 259 258 259 260 261 262 262 263 263 264 265
266 265 265 264 263 262 262 262 264 265 266 267 266 265 265 265 264 263 262 261 259 259 259 259 259 259 260 260 258 257 258 259 261 262 263 264 264 265
267 266 267 267 265 264 264 263 264 266 268 268 267 267 266 266 266 264 264 263 261 259 259 261 260 260 260 260 258 257 257 258 260 261 263 264 266 266
267 267 268 268 268 266 264 264 265 267 269 269 269 268 267 267 266 265 264 264 263 261 262 262 262 261 261 260 258 257 258 258 258 260 262 264 265 266